GW2137 Weather Reports


time (UTC)temp
F
wind
direction
speed
knots
gust
knots
rain 1hr
in
rain 24hr
in
rain mn
in
humidity
%
barometer
mb
20260507070204 50 140 0.0 1.7 0.00 0.22 0.01 87 1006.1
20260507065906 50 107 0.0 1.7 0.00 0.22 0.01 87 1006.1
20260507065138 50 101 0.0 1.7 0.00 0.22 0.01 87 1006.0
20260507065133 50 101 0.9 2.6 0.00 0.22 0.01 87 1005.7
20260507064358 50 101 0.0 2.6 0.00 0.22 0.01 87 1005.9
20260507063602 50 193 0.0 0.9 0.00 0.22 0.01 87 1006.1
20260507063307 50 193 0.0 0.9 0.00 0.22 0.01 87 1005.9
20260507062511 51 193 0.0 0.0 0.00 0.22 0.01 87 1005.9
20260507061941 51 193 0.0 1.7 0.00 0.22 0.01 87 1005.8
20260507061441 51 193 0.0 1.7 0.00 0.22 0.01 87 1005.8
20260507060911 51 198 0.0 2.6 0.00 0.22 0.01 87 1005.9
20260507060409 51 198 0.0 2.6 0.00 0.22 0.01 87 1005.9
20260507055842 51 76 0.0 2.6 0.00 0.22 0.01 87 1005.9
20260507055548 51 129 0.9 2.6 0.00 0.22 0.01 87 1006.0
20260507054817 51 42 0.9 1.7 0.01 0.22 0.01 88 1006.3
20260507054813 51 116 0.0 2.6 0.00 0.22 0.01 87 1006.2
20260507053801 52 57 0.9 2.6 0.01 0.22 0.01 88 1006.4
20260507053257 52 57 0.9 2.6 0.01 0.22 0.01 88 1006.3
20260507053030 52 267 0.9 1.7 0.01 0.22 0.01 88 1006.5
20260507052232 52 119 0.0 1.7 0.01 0.22 0.01 88 1006.3
20260507051959 52 119 0.9 1.7 0.01 0.22 0.01 88 1006.3
20260507051228 52 119 0.9 3.5 0.01 0.22 0.01 88 1006.5
20260507050659 52 120 0.0 3.5 0.01 0.22 0.01 88 1006.6
20260507050157 53 143 0.0 2.6 0.01 0.22 0.01 88 1006.3
20260507045630 53 98 0.9 2.6 0.02 0.22 0.01 88 1006.3
20260507045104 53 140 0.0 4.3 0.03 0.22 0.01 88 1006.3
20260507044813 53 150 0.9 4.3 0.02 0.21 0.01 88 1006.1
20260507044029 53 150 0.9 4.3 0.02 0.21 0.00 88 1006.2
20260507043528 53 170 0.9 4.3 0.02 0.21 0.00 88 1006.2
20260507043000 54 173 0.9 5.2 0.02 0.21 0.00 88 1006.1
20260507042457 54 178 0.9 5.2 0.02 0.21 0.00 87 1006.1
20260507041932 54 105 1.7 8.7 0.02 0.21 0.00 87 1006.2
20260507041636 54 201 0.9 8.7 0.02 0.21 0.00 87 1006.3
20260507040840 55 261 0.9 3.5 0.02 0.21 0.00 87 1006.3
20260507040548 56 198 0.9 3.5 0.02 0.21 0.00 88 1006.3
20260507035814 56 302 0.9 2.6 0.02 0.21 0.21 89 1006.3
20260507035545 56 167 0.9 2.6 0.00 0.19 0.20 89 1006.0
20260507035047 56 27 0.9 2.6 0.00 0.19 0.19 88 1006.0
20260507034523 56 159 0.9 1.7 0.00 0.19 0.19 88 1005.7
20260507033725 56 159 0.9 2.6 0.00 0.19 0.19 88 1005.6
20260507033203 57 306 0.0 1.7 0.00 0.19 0.19 88 1005.5
20260507032909 57 315 0.0 1.7 0.00 0.19 0.19 88 1005.4
20260507032118 57 315 0.9 2.6 0.00 0.19 0.19 88 1005.3
20260507031616 57 315 1.7 5.2 0.00 0.19 0.19 88 1005.3
20260507031345 58 20 2.6 7.0 0.00 0.19 0.19 88 1005.1
20260507030613 58 46 0.9 6.1 0.00 0.19 0.19 89 1005.2
20260507030049 59 274 0.9 6.1 0.00 0.19 0.19 90 1005.1
20260507025756 59 180 0.9 2.6 0.00 0.19 0.19 90 1005.0
20260507025021 59 18 0.9 2.6 0.00 0.19 0.19 90 1005.2
20260507025017 59 88 0.9 2.6 0.00 0.19 0.19 90 1005.0
20260507024012 59 143 0.9 4.3 0.00 0.19 0.19 90 1004.9
20260507023511 59 54 0.9 4.3 0.00 0.19 0.19 90 1005.1
20260507023006 59 120 0.9 3.5 0.00 0.19 0.19 90 1005.0
20260507022504 59 121 0.9 3.5 0.00 0.19 0.19 90 1005.0
20260507021938 59 87 0.9 2.6 0.00 0.19 0.19 90 1004.9
20260507021413 59 87 0.9 2.6 0.00 0.19 0.19 90 1004.7
20260507020847 59 145 0.9 3.5 0.00 0.19 0.19 90 1004.6
20260507020318 59 92 1.7 2.6 0.00 0.19 0.19 90 1004.7
20260507015817 59 58 0.9 3.5 0.00 0.19 0.19 90 1004.8
20260507015518 59 42 0.9 6.1 0.00 0.19 0.19 90 1004.8
20260507014747 59 75 0.9 6.1 0.00 0.19 0.19 90 1004.8
20260507014226 59 112 0.9 3.5 0.00 0.19 0.19 90 1004.9
20260507013648 59 146 0.9 2.6 0.00 0.19 0.19 90 1004.9
20260507013145 59 114 0.9 2.6 0.00 0.19 0.19 90 1004.8
20260507012621 59 113 0.9 2.6 0.00 0.19 0.19 90 1004.8
20260507012052 59 112 0.9 1.7 0.00 0.19 0.19 90 1004.9
20260507011550 59 98 1.7 2.6 0.00 0.19 0.19 90 1004.9
20260507011253 59 100 1.7 2.6 0.00 0.19 0.19 90 1005.0
20260507010521 59 330 0.9 2.6 0.00 0.19 0.19 90 1005.0
20260507010226 59 136 0.9 2.6 0.00 0.19 0.19 90 1005.0
20260507005450 59 136 0.9 3.5 0.00 0.19 0.19 90 1004.9
20260507004949 59 136 1.7 3.5 0.00 0.19 0.19 90 1004.9
20260507004420 59 130 1.7 4.3 0.00 0.19 0.19 90 1004.9
20260507003919 59 164 1.7 4.3 0.00 0.19 0.19 90 1004.8
20260507003350 59 161 0.9 3.5 0.00 0.19 0.19 90 1004.7
20260507003120 59 207 0.9 3.5 0.00 0.19 0.19 90 1004.7
20260507002320 59 207 1.7 3.5 0.01 0.19 0.19 90 1004.7
20260507001818 59 134 1.7 3.5 0.01 0.19 0.19 90 1004.7
20260507001314 59 107 1.7 3.5 0.01 0.19 0.19 90 1004.7
20260507000813 59 62 1.7 3.5 0.03 0.19 0.19 90 1004.8
20260507000244 59 148 0.9 2.6 0.05 0.19 0.19 90 1004.8
20260506235743 59 153 0.9 2.6 0.06 0.19 0.19 90 1004.7
20260506235214 59 152 1.7 3.5 0.06 0.19 0.19 90 1004.5
20260506234713 59 143 0.9 3.5 0.06 0.19 0.19 90 1004.6
20260506234208 59 146 0.9 4.3 0.07 0.19 0.19 90 1004.6
20260506233706 59 150 1.7 4.3 0.08 0.19 0.19 90 1004.6
20260506233159 59 142 0.9 4.3 0.09 0.19 0.19 89 1004.6
20260506233154 59 148 1.7 4.3 0.09 0.19 0.19 90 1004.6
20260506232140 59 173 1.7 4.3 0.08 0.18 0.18 89 1004.6
20260506231637 59 130 1.7 2.6 0.10 0.18 0.18 89 1004.6
20260506231409 59 101 1.7 5.2 0.09 0.17 0.18 89 1004.7
20260506230636 59 99 1.7 5.2 0.08 0.15 0.16 89 1004.7
20260506230108 59 162 0.9 3.5 0.07 0.14 0.14 89 1004.7
20260506225606 59 162 1.7 3.5 0.06 0.13 0.13 89 1004.7
20260506225041 59 163 0.9 3.5 0.06 0.13 0.13 89 1004.8
20260506224743 59 161 0.9 3.5 0.05 0.12 0.12 89 1004.9
20260506224011 59 171 0.9 3.5 0.04 0.11 0.11 89 1004.8
20260506223443 59 159 0.9 3.5 0.04 0.11 0.11 88 1004.8
20260506222943 59 160 1.7 5.2 0.03 0.10 0.10 88 1004.8
20260506222421 59 168 1.7 5.2 0.03 0.10 0.10 88 1004.9
20260506222153 59 128 1.7 6.1 0.02 0.09 0.09 88 1005.0
20260506221418 59 148 1.7 6.1 0.01 0.08 0.08 88 1005.0
20260506220915 59 174 1.7 4.3 0.01 0.08 0.08 88 1005.0
20260506220416 59 190 1.7 4.3 0.00 0.07 0.07 88 1005.1
20260506215914 59 162 0.9 4.3 0.01 0.07 0.07 88 1005.1
20260506215354 59 138 1.7 4.3 0.01 0.07 0.07 88 1005.3
20260506214857 59 141 1.7 4.3 0.01 0.07 0.07 88 1005.2
20260506214344 59 176 1.7 4.3 0.01 0.07 0.07 88 1005.1
20260506213847 60 175 1.7 4.3 0.02 0.07 0.07 88 1005.0
20260506213321 60 169 0.9 3.5 0.02 0.07 0.07 88 1005.1
20260506212821 60 135 0.9 2.6 0.02 0.07 0.07 88 1005.2
20260506212306 60 132 1.7 4.3 0.03 0.07 0.07 88 1005.3
20260506211805 60 176 1.7 4.3 0.03 0.07 0.07 87 1005.4
20260506211242 60 184 1.7 4.3 0.03 0.07 0.07 87 1005.5
20260506210725 60 188 1.7 4.3 0.04 0.07 0.07 87 1005.5
20260506210455 60 162 1.7 4.3 0.04 0.07 0.07 87 1005.5
20260506205958 60 153 1.7 3.5 0.03 0.06 0.06 87 1005.8
20260506205209 60 182 1.7 5.2 0.03 0.06 0.06 86 1005.7
20260506204710 60 169 1.7 4.3 0.03 0.06 0.06 87 1005.8
20260506204149 61 139 1.7 3.5 0.02 0.05 0.06 86 1005.8
20260506203649 61 155 1.7 6.1 0.02 0.05 0.05 86 1005.8
20260506203149 61 297 0.9 6.1 0.02 0.05 0.05 86 1005.8
20260506202646 61 143 1.7 2.6 0.03 0.05 0.05 86 1005.8
20260506202417 62 134 1.7 3.5 0.02 0.04 0.04 85 1005.8
20260506201849 62 189 1.7 3.5 0.02 0.04 0.04 85 1005.6
20260506201051 62 205 1.7 3.5 0.01 0.03 0.03 84 1005.7
20260506200525 62 138 1.7 3.5 0.02 0.03 0.03 84 1005.8
20260506195959 62 138 0.9 3.5 0.02 0.03 0.03 85 1005.7
20260506195432 62 172 0.9 2.6 0.02 0.03 0.03 84 1005.7
20260506194928 62 173 1.7 5.2 0.03 0.03 0.03 84 1005.8
20260506194425 62 338 1.7 5.2 0.03 0.03 0.03 83 1005.7
20260506193924 63 136 0.9 1.7 0.03 0.03 0.03 84 1005.7
20260506193358 63 136 1.7 3.5 0.03 0.03 0.03 83 1005.8
20260506192829 63 128 1.7 5.2 0.02 0.02 0.02 82 1005.8
20260506192329 64 130 1.7 5.2 0.02 0.02 0.02 82 1005.8
20260506191759 64 157 1.7 4.3 0.02 0.02 0.02 81 1005.7
20260506191258 64 158 1.7 4.3 0.02 0.02 0.02 79 1005.7
20260506190729 65 114 1.7 3.5 0.01 0.01 0.01 79 1005.8
20260506190228 65 111 1.7 4.3 0.01 0.01 0.01 78 1005.8
20260506185932 66 308 0.9 4.3 0.01 0.01 0.01 77 1006.0
20260506185133 66 131 0.9 2.6 0.01 0.01 0.01 77 1005.9
20260506184631 67 113 1.7 3.5 0.00 0.00 0.00 76 1005.9
20260506184123 67 158 1.7 4.3 0.00 0.00 0.00 75 1006.1
20260506183852 68 41 0.9 4.3 0.00 0.00 0.00 73 1005.9
20260506183119 68 67 1.7 7.0 0.00 0.00 0.00 73 1006.1
20260506182822 69 117 2.6 7.0 0.00 0.00 0.00 70 1006.0
20260506182048 69 150 1.7 7.0 0.00 0.00 0.00 70 1006.2
20260506181522 69 172 1.7 5.2 0.00 0.00 0.00 70 1006.0
20260506181500 70 148 2.6 7.0 0.00 0.00 0.00 68 1006.0
20260506180452 70 164 2.6 7.0 0.00 0.00 0.00 64 1006.0
20260506175951 71 123 2.6 7.8 0.00 0.00 0.00 64 1006.1
20260506175423 71 200 2.6 7.8 0.00 0.00 0.00 61 1006.1
20260506174922 71 159 2.6 7.8 0.00 0.00 0.00 60 1006.1
20260506174353 72 182 3.5 10.4 0.00 0.00 0.00 59 1006.1
20260506174122 72 148 2.6 10.4 0.00 0.00 0.00 59 1006.0
20260506173323 72 225 1.7 7.0 0.00 0.00 0.00 61 1006.1
20260506172821 72 203 2.6 7.0 0.00 0.00 0.00 60 1005.9
20260506172317 72 228 2.6 7.0 0.00 0.00 0.00 60 1005.9
20260506172048 72 179 2.6 9.6 0.00 0.00 0.00 61 1006.0
20260506171247 72 163 1.7 9.6 0.00 0.00 0.00 61 1006.1
20260506170744 72 170 1.7 6.1 0.00 0.00 0.00 63 1006.2
20260506170241 71 236 2.6 7.0 0.00 0.00 0.00 62 1006.2
20260506165739 71 158 2.6 7.0 0.00 0.00 0.00 62 1006.3
20260506165213 71 146 2.6 10.4 0.00 0.00 0.00 63 1006.5
20260506164714 71 146 2.6 6.1 0.00 0.00 0.00 63 1006.6
20260506164710 71 195 2.6 10.4 0.00 0.00 0.00 64 1006.5
20260506163642 71 191 1.7 5.2 0.00 0.00 0.00 64 1006.7
20260506163143 71 207 1.7 5.2 0.00 0.00 0.00 65 1006.9
20260506162914 71 294 2.6 6.1 0.00 0.00 0.00 64 1006.9
20260506162142 71 213 1.7 6.1 0.00 0.00 0.00 64 1006.9
20260506161614 70 108 1.7 4.3 0.00 0.00 0.00 65 1006.9
20260506161049 70 167 1.7 6.1 0.00 0.00 0.00 65 1007.0
20260506160521 70 149 1.7 6.1 0.00 0.00 0.00 65 1007.2
20260506160250 70 216 1.7 6.1 0.00 0.00 0.00 66 1007.4
20260506155451 70 148 1.7 6.1 0.00 0.00 0.00 67 1007.5
20260506154949 70 163 1.7 5.2 0.00 0.00 0.00 66 1007.6
20260506154421 69 126 2.6 7.8 0.00 0.00 0.00 67 1007.7
20260506153922 69 142 2.6 7.8 0.00 0.00 0.00 67 1007.8
20260506153355 69 143 1.7 7.0 0.00 0.00 0.00 67 1007.8
20260506152830 69 145 2.6 7.0 0.00 0.00 0.00 67 1007.9
20260506152325 69 213 2.6 7.0 0.00 0.00 0.00 67 1007.9
20260506151828 70 145 2.6 7.0 0.00 0.00 0.00 66 1008.1
20260506151314 70 163 2.6 7.0 0.00 0.00 0.00 66 1008.2
20260506150818 70 180 2.6 7.0 0.00 0.00 0.00 67 1008.2
20260506150249 70 153 3.5 7.0 0.00 0.00 0.00 67 1008.0
20260506145748 70 143 3.5 7.8 0.00 0.00 0.00 67 1008.0
20260506145230 70 130 2.6 7.8 0.00 0.00 0.00 66 1008.3
20260506145000 70 347 1.7 6.1 0.00 0.00 0.00 66 1008.3
20260506144227 70 177 2.6 5.2 0.00 0.00 0.00 68 1008.1
20260506143725 70 186 1.7 5.2 0.00 0.00 0.00 67 1008.2
20260506143224 70 150 1.7 7.0 0.00 0.00 0.00 69 1008.1
20260506142655 69 188 1.7 7.0 0.00 0.00 0.00 69 1008.1
20260506142155 69 229 2.6 7.0 0.00 0.00 0.00 69 1008.0
20260506141636 69 86 1.7 7.0 0.00 0.00 0.00 69 1007.9
20260506141139 68 320 1.7 7.8 0.00 0.00 0.00 70 1007.8
20260506140628 68 145 2.6 9.6 0.00 0.00 0.00 71 1007.8
20260506140124 68 130 2.6 9.6 0.00 0.00 0.00 72 1007.9
20260506135627 67 145 2.6 6.1 0.00 0.00 0.00 72 1007.9
20260506135118 67 150 2.6 6.1 0.00 0.00 0.00 73 1008.0
20260506134622 66 174 2.6 6.1 0.00 0.00 0.00 73 1008.1
20260506134102 66 176 2.6 7.0 0.00 0.00 0.00 74 1008.1
20260506133604 65 162 2.6 7.0 0.00 0.00 0.00 74 1008.2
20260506133102 65 185 2.6 7.0 0.00 0.00 0.00 74 1008.3
20260506132538 65 154 2.6 7.0 0.00 0.00 0.00 74 1008.4
20260506132014 65 113 1.7 3.5 0.00 0.00 0.00 75 1008.5
20260506131515 65 141 1.7 4.3 0.00 0.00 0.00 75 1008.5
20260506130952 65 133 1.7 5.2 0.00 0.00 0.00 75 1008.5
20260506130446 64 86 1.7 5.2 0.00 0.00 0.00 75 1008.5
20260506125946 64 119 1.7 5.2 0.00 0.00 0.00 76 1008.5
20260506125419 64 137 2.6 5.2 0.00 0.00 0.00 75 1008.5
20260506124855 64 196 2.6 4.3 0.00 0.00 0.00 75 1008.6
20260506124328 64 171 2.6 6.1 0.00 0.00 0.00 76 1008.5
20260506123802 64 142 2.6 6.1 0.00 0.00 0.00 76 1008.4
20260506123235 64 198 2.6 6.1 0.00 0.00 0.00 76 1008.3
20260506122711 63 148 2.6 6.1 0.00 0.00 0.00 76 1008.2
20260506122141 63 146 1.7 4.3 0.00 0.00 0.00 76 1008.5
20260506121640 63 125 0.9 5.2 0.00 0.00 0.00 76 1008.6
20260506121345 63 196 1.7 5.2 0.00 0.00 0.00 77 1008.6
20260506120549 63 140 1.7 6.1 0.00 0.00 0.00 77 1008.6
20260506120023 62 90 2.6 7.8 0.00 0.00 0.00 77 1008.5
20260506115457 62 84 2.6 7.8 0.00 0.00 0.00 77 1008.7
20260506114951 62 317 1.7 5.2 0.00 0.00 0.00 77 1008.7
20260506114450 62 130 1.7 4.3 0.00 0.00 0.00 77 1008.7
20260506113924 62 161 1.7 3.5 0.00 0.00 0.00 77 1008.8
20260506113355 62 160 1.7 4.3 0.00 0.00 0.00 78 1008.7
20260506113126 62 176 1.7 3.5 0.00 0.00 0.00 78 1008.8
20260506112600 62 133 1.7 4.3 0.00 0.00 0.00 78 1008.9
20260506111824 62 121 1.7 5.2 0.00 0.00 0.00 78 1008.8
20260506111323 61 300 1.7 6.1 0.00 0.00 0.00 78 1008.9
20260506110754 61 341 1.7 6.1 0.00 0.00 0.00 78 1008.7
20260506110253 61 178 1.7 4.3 0.00 0.00 0.00 79 1008.7
20260506105727 60 192 1.7 3.5 0.00 0.00 0.00 79 1008.8
20260506105433 60 146 1.7 2.6 0.00 0.00 0.00 79 1008.8
20260506104632 60 203 0.9 2.6 0.00 0.00 0.00 79 1008.9
20260506104131 60 110 0.9 2.6 0.00 0.00 0.00 79 1009.0
20260506103602 60 110 1.7 2.6 0.00 0.00 0.00 79 1008.9
20260506103101 60 150 0.9 2.6 0.00 0.00 0.00 79 1008.8
20260506102548 60 150 0.9 2.6 0.00 0.00 0.00 79 1008.7
20260506102051 60 150 0.0 0.9 0.00 0.00 0.00 79 1008.7
20260506101524 60 150 0.9 3.5 0.00 0.00 0.00 79 1008.8
20260506101249 60 151 0.9 3.5 0.00 0.00 0.00 78 1009.0
20260506100517 60 198 0.9 2.6 0.00 0.00 0.00 78 1008.8
20260506095948 60 130 0.9 3.5 0.00 0.00 0.00 78 1008.8
20260506095447 60 131 0.9 3.5 0.00 0.00 0.00 78 1008.8
20260506095148 60 138 0.9 3.5 0.00 0.00 0.00 78 1008.8
20260506094416 60 138 0.9 3.5 0.00 0.00 0.00 78 1008.7
20260506093848 60 138 0.9 3.5 0.00 0.00 0.00 78 1008.7
20260506093346 60 107 1.7 3.5 0.00 0.00 0.00 78 1008.6
20260506092842 60 104 0.9 3.5 0.00 0.00 0.00 78 1008.8
20260506092340 60 132 0.9 3.5 0.00 0.00 0.00 78 1008.8
20260506092043 60 166 0.9 3.5 0.00 0.00 0.00 77 1008.9
20260506091542 60 166 0.9 3.5 0.00 0.00 0.00 77 1008.7
20260506090742 60 144 0.9 2.6 0.00 0.00 0.00 77 1008.8
20260506090241 61 140 0.9 2.6 0.00 0.00 0.00 77 1008.7
20260506085712 61 140 0.9 2.6 0.00 0.00 0.00 76 1008.8
20260506085441 61 140 0.9 1.7 0.00 0.00 0.00 76 1008.7
20260506084936 61 140 0.9 3.5 0.00 0.00 0.00 76 1008.8
20260506084136 61 140 1.7 3.5 0.00 0.00 0.00 76 1008.8
20260506083632 61 140 1.7 3.5 0.00 0.00 0.00 75 1008.8
20260506083133 61 168 1.7 3.5 0.00 0.00 0.00 75 1008.8
20260506082606 62 130 1.7 3.5 0.00 0.00 0.00 75 1008.8
20260506082103 62 162 1.7 3.5 0.00 0.00 0.00 75 1008.7
20260506081604 62 170 1.7 4.3 0.00 0.00 0.00 75 1008.6
20260506081044 62 142 1.7 4.3 0.00 0.00 0.00 75 1008.7
20260506080544 62 176 1.7 4.3 0.00 0.00 0.00 74 1008.7
20260506073351 62 165 1.7 5.2 0.00 0.00 0.00 73 1008.5
20260506072825 62 176 1.7 5.2 0.00 0.00 0.00 73 1008.5
20260506072533 62 246 1.7 3.5 0.00 0.00 0.00 73 1008.4
20260506071739 62 144 0.9 3.5 0.00 0.00 0.00 73 1008.4
20260506071219 62 323 0.9 2.6 0.00 0.00 0.00 73 1008.4
20260506070656 62 142 0.9 2.6 0.00 0.00 0.00 72 1008.4